Temp
31 31 31 33 34 34 33 32 32 33 34 33 32 32 32 24 27 32 32 30 29 28 28 27 27 26 25 24 23 22 22 20 20 19 19 19 20 20 20 19 20 19 19 19
32 31 33 34 34 33 33 32 32 34 34 33 33 28 25 24 22 22 32 31 27 21 25 26 26 26 25 24 23 23 22 22 20 20 19 19 20 20 19 19 19 19 19 19
32 34 35 34 33 32 32 32 33 33 33 34 33 25 22 21 22 24 25 31 27 25 20 25 26 26 25 24 23 23 22 21 21 21 19 19 19 19 19 20 19 19 19 19
33 34 34 33 32 33 32 34 34 33 32 31 33 23 22 20 20 21 24 30 31 28 24 26 26 26 25 25 24 23 22 22 22 20 19 19 20 20 20 20 19 19 19 19
32 33 33 32 33 34 33 34 33 33 32 32 32 27 23 21 18 21 25 29 31 31 28 26 27 26 22 23 23 23 23 22 21 20 20 20 19 20 20 20 20 19 19 20
33 34 34 33 34 34 34 33 33 33 33 31 30 30 25 25 26 28 33 32 32 32 28 25 27 22 23 21 19 23 23 22 21 20 20 20 20 20 20 19 18 19 19 19
33 33 34 34 33 34 34 33 31 30 30 29 28 30 25 30 31 32 32 31 31 31 31 30 25 22 19 22 22 23 22 22 21 20 20 20 20 20 20 18 19 20 20 20
31 30 34 34 33 33 33 33 32 30 31 30 29 28 22 21 30 32 32 31 30 30 31 30 26 21 22 23 25 22 22 22 21 20 20 20 20 19 20 20 20 20 20 20
29 31 35 35 35 34 33 33 35 33 34 31 30 26 23 21 26 28 25 31 31 29 29 28 29 22 22 22 21 22 23 21 20 20 20 20 20 19 20 20 19 19 20 20
33 31 34 35 34 34 33 34 32 33 30 28 31 30 23 18 19 24 25 32 31 29 27 27 28 28 25 23 24 24 23 22 20 20 20 20 20 19 19 20 20 20 20 20
33 32 32 34 33 33 34 33 30 32 32 31 30 28 24 22 23 24 32 31 30 30 27 26 27 28 27 26 24 24 23 21 20 20 20 20 21 19 19 20 20 20 19 20
33 32 31 32 32 32 34 34 33 31 31 33 30 27 23 23 25 30 31 30 29 29 28 27 27 27 26 26 24 23 23 22 21 21 21 20 20 20 19 19 19 20 20 19
31 31 30 31 32 32 32 31 32 33 34 32 30 26 25 25 18 20 29 30 29 29 28 27 26 26 26 25 24 24 22 23 22 21 21 21 20 21 20 19 19 19 20 20
29 30 30 29 30 32 31 32 32 33 32 32 31 24 24 23 21 21 25 29 29 29 28 27 26 25 25 25 24 23 22 22 22 21 21 21 20 20 20 20 20 20 19 19
30 29 30 31 31 31 31 32 32 32 32 31 31 31 26 21 21 23 24 28 28 28 27 26 26 25 24 24 23 23 22 21 21 21 21 21 21 20 20 20 19 19 19 19
31 29 30 29 31 31 31 32 32 32 32 32 32 30 27 22 21 21 27 27 26 26 25 25 25 25 25 24 23 23 22 21 21 21 21 21 21 20 21 21 20 20 20 19
30 29 28 27 29 30 29 31 32 32 32 32 30 29 29 25 25 27 26 26 25 25 24 23 24 24 23 23 23 23 22 22 21 21 21 21 21 20 21 21 20 20 20 20
29 28 28 27 28 26 31 33 31 30 31 31 30 29 28 27 26 25 25 24 24 23 23 23 23 23 22 22 22 22 23 22 21 21 21 20 20 20 20 20 20 20 20 20
30 29 27 26 27 29 30 29 29 28 29 29 28 29 28 27 25 24 23 23 23 23 22 22 22 23 22 22 22 21 22 22 21 21 21 21 21 20 20 20 21 20 20 20
29 29 27 26 26 26 29 28 28 29 27 27 26 27 26 26 24 21 21 21 22 22 21 21 22 22 22 21 21 20 21 21 21 20 20 21 21 21 21 20 21 21 20 20
27 26 26 27 26 28 27 28 27 25 24 24 24 24 23 23 22 20 20 21 21 21 21 20 20 21 20 20 20 20 20 20 20 20 20 20 21 21 21 20 20 20 20 19
26 26 26 27 26 25 25 26 25 23 24 23 23 22 22 22 23 22 22 21 21 20 20 20 20 20 19 19 19 19 19 18 19 20 20 19 20 20 20 21 21 20 20 21
26 26 25 25 24 25 25 24 23 23 23 23 23 22 22 22 22 22 22 22 21 21 20 20 19 19 19 19 18 18 18 18 18 18 19 20 19 19 20 20 20 20 20 19
27 25 25 25 25 25 25 24 24 23 22 22 22 22 22 21 21 21 21 21 21 21 20 20 19 19 18 18 18 17 18 18 18 17 18 18 18 19 19 19 20 19 20 20
25 25 24 24 24 24 24 23 22 22 21 21 21 21 21 21 21 21 20 20 19 19 19 19 19 18 18 17 17 17 16 17 17 17 17 17 19 18 19 20 21 21 18 19
24 24 23 23 22 22 21 21 21 21 21 20 21 20 21 20 20 19 19 19 19 18 18 18 18 17 17 17 16 16 16 16 16 16 17 18 18 19 18 18 18 18 18 17
Height
1498 1501 1500 1486 1478 1478 1485 1487 1488 1476 1471 1478 1481 1479 1476 1488 1482 1471 1473 1477 1479 1487 1488 1499 1504 1510 1513 1518 1521 1525 1531 1534 1538 1542 1544 1547 1548 1550 1551 1553 1555 1557 1558 1558
1494 1495 1483 1478 1476 1484 1485 1488 1483 1467 1469 1474 1476 1493 1490 1495 1491 1494 1472 1473 1474 1488 1497 1499 1501 1505 1509 1515 1518 1520 1524 1530 1536 1538 1542 1544 1545 1547 1549 1551 1553 1555 1556 1557
1490 1479 1476 1480 1480 1488 1484 1483 1475 1477 1470 1470 1471 1505 1505 1503 1501 1487 1476 1473 1473 1482 1487 1496 1500 1500 1506 1511 1515 1518 1522 1527 1532 1536 1539 1541 1543 1545 1546 1547 1549 1552 1554 1555
1483 1479 1479 1483 1485 1479 1485 1467 1470 1473 1478 1491 1463 1534 1522 1516 1503 1491 1482 1474 1473 1472 1480 1484 1492 1497 1502 1504 1509 1513 1519 1524 1529 1535 1535 1536 1539 1540 1541 1542 1545 1548 1552 1554
1483 1478 1480 1486 1480 1474 1480 1469 1471 1470 1473 1471 1473 1503 1511 1513 1513 1490 1478 1473 1468 1472 1473 1485 1488 1494 1502 1499 1508 1512 1514 1519 1526 1528 1532 1534 1535 1537 1536 1536 1541 1543 1547 1550
1479 1474 1474 1476 1473 1472 1470 1472 1468 1463 1463 1483 1483 1487 1506 1499 1483 1474 1467 1468 1467 1468 1471 1470 1481 1485 1487 1506 1505 1507 1509 1516 1522 1525 1529 1531 1532 1533 1533 1541 1536 1546 1542 1547
1474 1473 1471 1474 1476 1469 1469 1473 1487 1492 1486 1503 1475 1487 1516 1479 1477 1467 1465 1469 1469 1468 1468 1467 1469 1480 1497 1487 1493 1496 1508 1510 1519 1522 1526 1529 1530 1531 1530 1536 1538 1541 1540 1543
1484 1494 1467 1467 1474 1475 1469 1466 1483 1501 1487 1482 1478 1495 1515 1509 1482 1471 1462 1464 1467 1468 1466 1467 1471 1472 1501 1493 1497 1502 1507 1508 1517 1520 1523 1525 1528 1529 1530 1530 1532 1535 1539 1542
1495 1482 1458 1460 1464 1466 1467 1471 1453 1466 1454 1477 1479 1498 1509 1506 1484 1473 1472 1461 1466 1470 1471 1471 1473 1481 1482 1478 1493 1502 1504 1509 1515 1518 1522 1522 1524 1527 1528 1530 1532 1534 1537 1539
1469 1483 1462 1458 1462 1462 1466 1458 1476 1464 1494 1506 1474 1480 1510 1515 1501 1480 1475 1466 1469 1473 1474 1474 1476 1479 1483 1487 1495 1499 1501 1506 1512 1516 1519 1520 1522 1525 1528 1529 1530 1531 1533 1537
1471 1473 1474 1461 1465 1468 1462 1466 1475 1469 1467 1484 1490 1493 1489 1492 1475 1479 1466 1469 1473 1474 1476 1476 1477 1482 1487 1489 1492 1501 1507 1510 1512 1513 1516 1518 1518 1521 1524 1526 1527 1529 1530 1535
1469 1471 1480 1471 1458 1461 1458 1457 1460 1477 1477 1460 1475 1497 1478 1479 1478 1476 1473 1475 1479 1478 1478 1478 1478 1480 1486 1490 1493 1500 1503 1504 1510 1513 1514 1515 1517 1519 1522 1523 1524 1527 1527 1532
1480 1477 1490 1477 1467 1465 1468 1467 1464 1457 1448 1463 1477 1500 1481 1475 1483 1494 1486 1481 1480 1479 1480 1480 1481 1482 1485 1488 1492 1494 1497 1498 1505 1510 1512 1513 1514 1517 1519 1521 1524 1525 1526 1527
1487 1486 1491 1498 1484 1472 1477 1470 1464 1460 1468 1463 1464 1490 1486 1493 1492 1499 1494 1483 1479 1480 1481 1481 1483 1485 1487 1488 1490 1493 1497 1500 1502 1506 1508 1509 1513 1513 1516 1518 1522 1522 1524 1525
1485 1492 1484 1478 1473 1472 1470 1467 1463 1466 1463 1473 1463 1459 1468 1485 1485 1488 1491 1486 1481 1482 1482 1484 1484 1485 1487 1490 1491 1493 1495 1498 1500 1502 1504 1506 1508 1509 1513 1516 1518 1522 1522 1524
1479 1489 1482 1485 1476 1471 1470 1463 1460 1459 1457 1459 1457 1464 1471 1479 1484 1491 1487 1487 1485 1482 1485 1487 1488 1488 1489 1490 1491 1493 1494 1493 1496 1498 1500 1502 1503 1506 1508 1511 1513 1516 1518 1520
1483 1486 1491 1497 1479 1476 1481 1460 1454 1453 1452 1458 1468 1467 1468 1478 1485 1488 1492 1492 1487 1486 1488 1490 1490 1490 1490 1490 1491 1491 1492 1492 1493 1494 1496 1499 1502 1504 1504 1506 1509 1512 1513 1515
1480 1484 1488 1496 1486 1505 1465 1451 1454 1460 1461 1462 1466 1469 1473 1480 1486 1491 1493 1493 1491 1490 1491 1491 1492 1491 1491 1490 1489 1488 1490 1489 1490 1492 1494 1497 1499 1500 1501 1503 1503 1505 1508 1509
1475 1480 1489 1497 1493 1477 1464 1464 1466 1470 1472 1468 1474 1474 1477 1480 1485 1490 1494 1495 1494 1493 1493 1493 1493 1492 1491 1490 1489 1488 1486 1488 1488 1491 1491 1492 1493 1494 1497 1498 1499 1500 1502 1504
1475 1477 1488 1491 1500 1500 1470 1469 1471 1471 1483 1477 1480 1480 1482 1483 1485 1496 1496 1496 1496 1495 1495 1494 1494 1492 1492 1491 1488 1486 1486 1486 1487 1488 1489 1489 1491 1493 1493 1494 1495 1497 1499 1501
1479 1482 1491 1485 1489 1478 1472 1474 1475 1489 1495 1486 1487 1489 1490 1491 1496 1497 1497 1497 1497 1497 1496 1495 1494 1493 1492 1491 1489 1487 1486 1485 1484 1484 1483 1485 1485 1485 1488 1490 1491 1492 1494 1497
1484 1485 1483 1477 1482 1491 1483 1479 1485 1491 1488 1490 1491 1493 1494 1494 1494 1495 1495 1495 1496 1496 1495 1494 1493 1492 1491 1490 1488 1486 1485 1483 1482 1481 1480 1480 1481 1481 1481 1483 1484 1487 1491 1493
1485 1480 1486 1487 1489 1485 1483 1486 1489 1490 1492 1491 1492 1494 1494 1494 1494 1494 1493 1493 1493 1492 1492 1492 1490 1489 1488 1487 1486 1484 1483 1481 1480 1478 1477 1476 1476 1476 1477 1477 1478 1482 1483 1488
1473 1478 1479 1484 1482 1483 1485 1487 1489 1490 1492 1492 1492 1491 1492 1493 1493 1492 1490 1489 1489 1488 1488 1487 1486 1485 1483 1483 1482 1481 1479 1478 1477 1475 1474 1473 1472 1472 1471 1471 1470 1475 1478 1479
1482 1481 1483 1485 1485 1485 1486 1487 1489 1491 1492 1493 1491 1491 1491 1490 1489 1488 1487 1486 1486 1485 1484 1483 1481 1480 1479 1477 1476 1475 1474 1473 1472 1471 1469 1468 1467 1467 1465 1463 1461 1459 1465 1471
1483 1481 1483 1484 1488 1490 1491 1490 1490 1490 1490 1491 1489 1488 1487 1486 1486 1486 1484 1483 1482 1480 1479 1477 1476 1474 1473 1472 1471 1469 1469 1468 1466 1465 1464 1464 1464 1463 1462 1459 1458 1459 1444 1457
Wind_Speed
16 11 13 16 14 7 8 12 10 13 1 7 10 12 12 47 45 10 16 24 27 26 22 23 22 20 27 29 30 25 21 17 16 20 16 16 15 15 12 9 13 14 7 10
12 13 13 15 4 6 10 11 16 13 5 8 11 14 18 31 41 40 13 14 25 14 4 24 24 25 26 29 30 23 26 17 23 19 14 14 13 14 10 15 13 15 14 11
14 17 2 9 5 8 13 15 14 10 12 14 15 15 14 15 41 34 37 15 27 25 29 31 25 30 29 31 29 26 24 24 23 18 18 15 13 13 15 17 18 17 15 11
9 14 9 9 11 12 15 8 11 12 12 11 7 4 1 5 14 22 38 22 16 27 43 31 38 32 29 33 29 26 24 24 22 22 21 19 17 15 14 12 17 14 15 16
13 8 10 9 13 13 12 14 15 15 15 16 5 6 6 8 10 17 30 27 15 13 36 26 37 29 9 19 18 26 24 24 22 21 23 20 18 18 17 18 20 19 18 16
16 8 9 12 11 11 12 13 18 19 16 12 9 6 5 6 8 3 7 5 7 8 33 33 40 40 11 18 23 28 26 23 22 21 22 21 19 19 20 14 19 21 18 17
17 16 13 9 12 12 13 17 13 8 3 4 9 7 9 5 10 5 6 4 6 8 8 12 40 34 27 12 29 23 28 24 23 23 19 18 16 16 21 13 17 20 16 14
8 5 13 12 12 14 14 15 9 16 11 8 4 6 5 16 13 2 15 8 5 5 4 6 22 24 31 9 24 18 26 20 22 23 21 17 14 18 21 20 12 16 19 21
8 11 7 9 8 13 13 12 13 12 12 13 4 15 13 7 22 30 19 16 9 3 2 0 1 39 24 26 25 21 15 18 20 19 20 17 15 15 18 20 16 15 18 21
13 5 7 9 10 12 11 13 12 8 6 5 0 7 10 11 14 24 18 16 10 5 1 1 4 2 24 30 26 24 19 21 19 19 19 19 18 17 20 16 19 20 23 23
10 11 3 5 9 12 8 13 9 15 13 7 6 7 15 22 21 20 11 13 9 7 3 2 3 6 9 14 16 16 12 15 17 15 18 17 17 18 18 19 19 16 22 18
13 8 11 16 13 20 23 13 8 9 15 7 5 3 7 11 27 21 12 10 7 7 6 3 3 5 7 13 16 14 15 13 14 16 18 19 17 15 16 21 20 17 26 20
12 6 9 12 10 17 17 16 18 22 16 13 6 3 6 8 32 54 14 5 8 6 6 5 3 3 6 9 12 12 26 13 16 18 20 20 17 14 16 17 20 20 17 28
6 12 14 13 17 11 11 12 16 19 13 16 14 10 13 10 12 22 25 3 9 8 7 7 4 2 3 6 14 20 22 21 24 23 20 20 20 18 17 22 15 22 21 18
4 12 13 16 18 19 20 19 17 18 16 17 19 19 16 16 14 30 24 4 9 8 9 5 9 3 3 6 8 10 12 15 23 17 19 20 21 19 19 19 19 18 20 20
6 11 12 16 17 19 19 18 18 17 16 15 16 7 15 23 31 21 4 6 10 13 10 8 6 5 1 4 9 11 15 15 15 20 22 22 21 22 22 19 21 19 20 20
10 10 11 15 16 16 16 13 12 10 8 12 12 17 18 22 17 10 6 8 11 13 10 8 6 6 4 3 5 9 13 17 19 18 20 20 22 23 23 21 21 23 24 23
12 11 9 11 12 15 13 6 6 7 8 11 11 11 11 14 12 9 8 9 11 11 10 9 8 6 5 4 6 2 12 16 18 19 18 20 22 23 23 22 23 23 24 24
9 9 9 10 12 16 18 12 10 8 7 10 9 9 7 7 11 9 7 7 8 8 8 8 9 8 6 7 6 8 7 11 16 18 20 20 22 23 23 22 22 21 20 21
6 7 7 10 13 14 6 9 4 4 3 12 12 10 10 9 3 5 8 9 8 7 7 8 8 8 7 8 7 8 8 9 12 15 17 20 21 23 24 25 24 22 21 22
7 8 9 9 12 12 11 8 7 7 4 8 7 10 12 8 7 2 2 2 4 6 7 8 8 8 8 9 9 8 8 8 10 9 11 19 22 24 26 26 25 24 22 21
11 8 9 10 13 7 12 9 5 4 4 6 6 7 6 7 7 4 6 6 7 8 10 10 11 10 9 9 9 9 10 12 14 16 14 11 19 24 28 28 28 25 25 23
4 6 7 4 6 3 1 5 7 9 8 8 2 6 9 12 13 14 14 13 13 14 14 14 16 17 17 15 14 14 13 15 15 16 13 16 19 20 26 28 28 30 27 26
2 11 5 5 6 14 9 6 7 6 10 13 14 14 14 16 19 20 20 18 16 17 17 17 17 19 21 23 24 22 21 16 17 19 17 14 15 18 22 27 32 29 30 29
11 12 6 9 13 13 10 12 10 9 10 16 15 14 17 18 18 17 17 18 18 19 19 20 21 20 22 24 26 27 26 22 20 20 20 19 19 20 20 26 31 36 28 26
14 9 6 7 10 6 10 16 17 17 14 17 16 19 15 16 20 21 23 22 22 22 22 23 23 22 22 25 27 29 29 27 25 25 22 18 18 18 15 20 18 16 10 19
Wind_Direction
218 234 236 245 243 325 333 296 294 269 221 311 290 282 359 7 352 219 240 189 190 185 180 187 191 190 189 190 187 184 197 172 191 194 209 225 219 213 217 209 210 230 225 262
248 226 244 268 310 310 274 258 268 268 178 252 274 38 22 12 335 316 246 248 174 216 167 201 192 190 193 186 194 199 195 207 199 215 212 223 223 222 223 199 226 228 231 225
241 267 140 255 250 244 248 254 274 345 324 285 256 36 36 13 315 325 330 259 181 185 220 195 206 194 188 191 191 190 204 200 213 223 203 212 211 209 217 204 208 217 219 229
264 255 249 263 251 253 265 332 319 300 294 292 260 127 47 187 24 306 291 268 229 191 186 200 199 196 198 191 194 196 196 207 223 214 211 213 220 209 214 219 204 204 221 209
251 224 250 241 248 255 267 313 297 289 278 269 333 101 261 245 199 246 260 232 231 265 182 186 195 189 188 164 185 194 205 220 216 215 213 216 224 220 219 203 197 200 226 216
266 293 257 239 239 249 269 285 270 262 263 256 1 292 205 233 237 225 45 341 317 278 167 210 203 180 203 236 254 184 202 204 208 213 213 219 225 216 214 211 208 209 214 220
232 235 226 238 274 260 260 261 280 293 268 271 232 255 46 259 260 122 71 44 328 330 290 215 180 160 142 179 212 174 197 205 207 211 221 216 225 220 215 208 188 197 216 235
246 237 212 192 226 278 285 292 288 303 326 232 187 160 295 323 337 132 118 91 51 336 354 304 154 172 175 12 189 182 201 201 201 200 220 219 211 219 216 227 226 219 206 227
63 309 137 200 212 234 279 291 316 295 318 26 107 101 60 312 338 295 317 87 66 40 345 53 65 174 162 154 197 181 203 199 202 204 216 220 220 211 214 223 213 216 226 211
314 272 242 256 204 241 264 304 310 313 316 327 245 132 152 123 231 262 288 76 69 80 54 145 183 209 157 157 180 192 192 211 204 200 219 220 217 213 213 209 207 208 222 222
307 307 257 227 223 315 256 239 9 316 315 290 340 64 162 188 204 229 83 78 62 91 98 183 173 166 154 171 199 199 201 205 215 201 220 218 218 219 216 206 210 225 216 232
327 311 305 312 160 217 269 343 268 251 276 286 351 75 350 13 360 6 84 68 54 59 81 114 175 172 192 178 197 191 171 222 230 219 218 217 222 223 217 208 214 235 218 209
359 312 316 299 27 340 342 331 308 299 297 298 276 120 275 28 56 324 333 50 101 122 90 92 114 159 196 192 197 202 200 232 216 221 218 214 224 229 221 227 225 225 227 229
325 283 280 287 308 306 268 254 263 282 308 321 338 138 214 98 129 214 284 124 99 85 74 69 107 157 203 223 208 195 207 200 210 209 211 217 217 221 223 227 237 229 227 228
264 272 285 296 309 311 306 302 297 294 292 298 304 309 131 127 129 234 253 142 91 80 75 49 29 143 192 209 216 212 227 227 217 207 209 220 224 221 222 221 228 225 227 233
280 283 291 288 286 281 283 277 276 278 281 286 297 360 134 162 180 236 152 117 99 85 65 56 46 30 64 219 217 231 223 245 244 219 220 215 225 228 230 225 223 228 231 235
282 294 302 288 304 307 290 280 281 289 328 348 321 112 147 158 164 99 106 80 73 73 70 54 40 35 5 3 246 238 236 234 245 242 226 225 227 230 235 235 228 227 232 236
268 263 268 285 291 277 281 326 360 327 322 358 27 65 69 89 108 90 61 62 61 58 54 46 28 13 354 318 286 176 236 234 234 243 250 243 241 240 237 234 241 239 233 230
271 271 275 276 269 277 276 40 25 16 343 40 5 44 81 133 124 113 72 55 46 44 38 28 17 10 15 13 350 316 247 242 245 238 241 240 239 239 242 239 240 241 235 229
249 290 252 276 290 289 25 82 33 5 253 35 19 11 10 353 2 59 18 16 18 19 17 14 8 5 10 359 348 323 306 295 273 260 253 248 243 241 239 243 243 240 233 229
237 217 261 268 261 269 37 15 335 262 35 46 18 24 28 36 51 73 4 307 333 335 340 348 352 354 352 347 345 340 319 298 297 274 256 252 251 243 242 243 243 239 234 227
289 288 276 260 269 256 17 321 352 54 79 35 27 26 359 337 318 291 283 281 294 299 305 312 316 319 323 328 324 323 320 303 288 275 266 262 251 249 246 243 239 237 237 230
254 272 297 320 6 184 127 65 29 1 339 329 305 300 309 310 305 299 294 290 287 286 287 289 294 297 300 299 307 303 301 306 311 308 295 274 256 255 249 241 240 236 230 228
6 16 272 269 299 324 335 331 299 304 331 315 299 297 303 300 296 295 296 294 296 293 291 286 281 284 288 291 292 288 289 294 297 296 300 292 287 278 269 253 242 237 231 225
300 328 304 291 278 306 295 355 4 335 310 304 295 300 299 294 291 293 300 307 307 302 298 291 285 279 280 285 285 287 291 290 285 290 285 287 292 277 275 270 259 239 226 220
283 290 291 309 344 337 308 313 310 304 306 294 296 287 289 306 305 301 298 295 294 293 291 289 287 285 280 279 280 279 284 286 282 277 283 285 295 276 279 290 299 291 251 244